International Falls, MN

11:01 PM CDT on March 26, 2017 (GMT -0500)
Falls International

Weather History for KINL - December, 2013

Change the Weather History Date:

Sunday, December 1, 2013

  Actual Average Record
Temperature  
Mean Temperature 16 °F 16 °F  
Max Temperature 25 °F 25 °F 56 °F (1962)
Min Temperature 6 °F 8 °F -28 °F (1908)
Degree Days  
Heating Degree Days 49 49  
Month to date heating degree days 49 49  
Since 1 July heating degree days 2407 2510  
Cooling Degree Days 0 0  
Month to date cooling degree days 0 0  
Year to date cooling degree days 224 192  
Moisture  
Dew Point 17 °F    
Average Humidity 83    
Maximum Humidity 92    
Minimum Humidity 74    
Precipitation  
Precipitation 0.03 in 0.03 in 0.47 in (1970)
Month to date precipitation 0.03 0.03  
Year to date precipitation 30.43 23.44  
Snow  
Snow 0.80 in 0.50 in 5.60 in (2009)
Month to date snowfall 0.8 0.5  
Since 1 July snowfall 11.7 16.5  
Snow Depth 3.00 in    
Sea Level Pressure  
Sea Level Pressure 30.12 in    
Wind  
Wind Speed 2 mph (West)    
Max Wind Speed 8 mph    
Max Gust Speed 9 mph    
Visibility 8 miles    
Events Snow    
T = Trace of Precipitation, MM = Missing Value Source: NWS Daily Summary

Daily Weather History Graph

Daily Weather History Graph

Search for Another Location

Airport or City:

Trip Planner

Search our weather history database for the weather conditions in past years. The results will help you decide how hot, cold, wet, or windy it might be!

Date:

Astronomy

Dec. 01, 2013 Rise Set
Actual Time 7:44 AM CST 4:20 PM CST
Civil Twilight 7:08 AM CST 4:56 PM CST
Nautical Twilight 6:29 AM CST 5:35 PM CST
Astronomical Twilight 5:51 AM CST 6:13 PM CST
Moon 5:57 AM CST (12/1) 3:36 PM CST (12/1)
Length of Visible Light 9h 47m
Length of Day
8h 35m
Waning Crescent, 2% of the Moon is Illuminated
Dec 1
Waning Crescent
Dec 2
New
Dec 9
First Quarter
Dec 17
Full
Dec 25
Last Quarter

Hourly Weather History & Observations

Time (CST) Temp. Windchill Dew Point Humidity Pressure Visibility Wind Dir Wind Speed Gust Speed Precip Events Conditions
12:02 AM 24.8 °F - 19.4 °F 80% 30.15 in 8.0 mi Calm Calm - N/A   Overcast
12:14 AM 24.8 °F - 21.2 °F 86% 30.15 in 8.0 mi Calm Calm - N/A   Overcast
12:21 AM 24.8 °F - 21.2 °F 86% 30.15 in 8.0 mi Calm Calm - N/A   Overcast
12:55 AM 24.1 °F - 19.9 °F 84% 30.21 in 8.0 mi Calm Calm - N/A   Overcast
1:35 AM 24.8 °F - 21.2 °F 86% 30.14 in 7.0 mi Calm Calm - N/A   Overcast
1:55 AM 24.1 °F - 21.0 °F 88% 30.21 in 6.0 mi Calm Calm - N/A   Overcast
2:55 AM 24.1 °F - 21.0 °F 88% 30.21 in 6.0 mi Calm Calm - N/A   Overcast
3:55 AM 24.1 °F - 21.0 °F 88% 30.20 in 5.0 mi Calm Calm - N/A   Overcast
4:55 AM 24.1 °F 18.2 °F 21.0 °F 88% 30.20 in 6.0 mi NW 4.6 mph - N/A   Overcast
5:02 AM 24.8 °F 19.1 °F 21.2 °F 86% 30.13 in 6.0 mi WNW 4.6 mph - N/A   Overcast
5:12 AM 24.8 °F - 21.2 °F 86% 30.14 in 6.0 mi Calm Calm - N/A   Overcast
5:24 AM 24.8 °F 20.5 °F 21.2 °F 86% 30.13 in 4.0 mi West 3.5 mph - N/A   Overcast
5:36 AM 24.8 °F 20.5 °F 21.2 °F 86% 30.13 in 4.0 mi West 3.5 mph - N/A   Overcast
5:55 AM 24.1 °F 19.7 °F 21.0 °F 88% 30.20 in 3.0 mi West 3.5 mph - N/A   Overcast
6:26 AM 24.8 °F 20.5 °F 21.2 °F 86% 30.13 in 4.0 mi NW 3.5 mph - 0.00 in Snow Light Snow
6:55 AM 23.0 °F 18.4 °F 19.9 °F 88% 30.19 in 2.5 mi West 3.5 mph - 0.00 in Snow Light Snow
7:06 AM 23.0 °F 18.4 °F 19.4 °F 86% 30.13 in 1.2 mi WNW 3.5 mph - 0.01 in Snow Light Snow
7:29 AM 23.0 °F 17.0 °F 19.4 °F 86% 30.12 in 1.2 mi West 4.6 mph - 0.01 in Snow Light Snow
7:48 AM 23.0 °F 18.4 °F 19.4 °F 86% 30.12 in 2.5 mi West 3.5 mph - 0.02 in Snow Light Snow
7:55 AM 21.9 °F 17.2 °F 19.0 °F 89% 30.19 in 2.0 mi West 3.5 mph - 0.02 in Snow Light Snow
8:11 AM 21.2 °F 16.4 °F 19.4 °F 93% 30.12 in 3.0 mi West 3.5 mph - 0.00 in Snow Light Snow
8:55 AM 21.9 °F 17.2 °F 19.0 °F 89% 30.19 in 6.0 mi West 3.5 mph - 0.00 in   Overcast
9:50 AM 21.2 °F 13.6 °F 19.4 °F 93% 30.13 in 10.0 mi West 5.8 mph - N/A   Overcast
9:55 AM 21.9 °F 14.5 °F 19.0 °F 89% 30.19 in 10.0 mi WNW 5.8 mph - N/A   Overcast
10:02 AM 21.2 °F 13.6 °F 19.4 °F 93% 30.12 in 10.0 mi WNW 5.8 mph - N/A   Overcast
10:43 AM 21.2 °F 13.6 °F 17.6 °F 86% 30.12 in 10.0 mi WNW 5.8 mph - N/A   Overcast
10:55 AM 23.0 °F 17.0 °F 19.0 °F 85% 30.18 in 10.0 mi WNW 4.6 mph - N/A   Overcast
11:42 AM 23.0 °F 15.8 °F 17.6 °F 80% 30.10 in 10.0 mi WNW 5.8 mph - N/A   Overcast
11:55 AM 23.0 °F 15.8 °F 18.0 °F 81% 30.16 in 10.0 mi West 5.8 mph - N/A   Overcast
12:07 PM 23.0 °F 15.8 °F 17.6 °F 80% 30.09 in 10.0 mi West 5.8 mph - N/A   Overcast
12:55 PM 24.1 °F - 19.0 °F 81% 30.13 in 10.0 mi Calm Calm - N/A   Overcast
1:37 PM 23.0 °F 17.0 °F 17.6 °F 80% 30.05 in 10.0 mi WSW 4.6 mph - N/A   Overcast
1:55 PM 24.1 °F - 18.0 °F 77% 30.11 in 10.0 mi Calm Calm - N/A   Overcast
2:46 PM 24.8 °F 20.5 °F 17.6 °F 74% 30.03 in 10.0 mi West 3.5 mph - N/A   Overcast
2:55 PM 24.1 °F 19.7 °F 17.1 °F 75% 30.09 in 10.0 mi West 3.5 mph - N/A   Overcast
3:02 PM 24.8 °F 20.5 °F 17.6 °F 74% 30.02 in 10.0 mi West 3.5 mph - N/A   Overcast
3:30 PM 23.0 °F 18.4 °F 17.6 °F 80% 30.02 in 10.0 mi West 3.5 mph - N/A   Overcast
3:39 PM 23.0 °F 17.0 °F 17.6 °F 80% 30.02 in 10.0 mi West 4.6 mph - N/A   Overcast
3:55 PM 23.0 °F 18.4 °F 17.1 °F 78% 30.08 in 10.0 mi West 3.5 mph - N/A   Overcast
4:55 PM 21.9 °F - 16.0 °F 78% 30.08 in 10.0 mi Calm Calm - N/A   Overcast
5:55 PM 21.0 °F - 16.0 °F 81% 30.08 in 10.0 mi Calm Calm - N/A   Overcast
6:55 PM 19.9 °F 14.9 °F 15.1 °F 81% 30.05 in 10.0 mi WNW 3.5 mph - N/A   Overcast
7:55 PM 15.1 °F - 12.0 °F 88% 30.05 in 9.0 mi Calm Calm - N/A   Scattered Clouds
8:55 PM 8.1 °F - 6.1 °F 92% 30.04 in 9.0 mi Calm Calm - N/A   Clear
9:55 PM 7.0 °F - 3.0 °F 84% 30.03 in 10.0 mi Calm Calm - N/A   Overcast
10:55 PM 7.0 °F - 1.9 °F 80% 30.02 in 5.0 mi Calm Calm - N/A   Haze
11:55 PM 10.0 °F - 6.1 °F 84% 30.01 in 9.0 mi Calm Calm - N/A   Overcast